Madison, SD

4:51 AM CDT on July 24, 2017 (GMT -0500)
Madison Municipal

Weather History for KMDS - April, 2013

Change the Weather History Date:

Monday, April 1, 2013

  Actual Average Record
Temperature  
Mean Temperature 24 °F -  
Max Temperature 32 °F 49 °F 89 °F (2012)
Min Temperature 15 °F 27 °F 10 °F (2014)
Degree Days  
Heating Degree Days 42    
Moisture  
Dew Point 17 °F    
Average Humidity 78    
Maximum Humidity 100    
Minimum Humidity 48    
Precipitation  
Precipitation 0.00 in - - ()
Sea Level Pressure  
Sea Level Pressure 30.26 in    
Wind  
Wind Speed 11 mph (North)    
Max Wind Speed 18 mph    
Max Gust Speed 23 mph    
Visibility 10 miles    
Events      
Averages and records for this station are not official NWS values.
T = Trace of Precipitation, MM = Missing Value Source: NWS Daily Summary

Daily Weather History Graph

Daily Weather History Graph

Search for Another Location

Airport or City:

Trip Planner

Search our weather history database for the weather conditions in past years. The results will help you decide how hot, cold, wet, or windy it might be!

Date:

Astronomy

Apr. 01, 2013 Rise Set
Actual Time 7:09 AM CDT 7:55 PM CDT
Civil Twilight 6:40 AM CDT 8:24 PM CDT
Nautical Twilight 6:05 AM CDT 8:59 PM CDT
Astronomical Twilight 5:29 AM CDT 9:35 PM CDT
Moon 1:14 AM CDT (4/1) 10:48 AM CDT (4/1)
Length of Visible Light 13h 44m
Length of Day
12h 46m
Waning Gibbous, 67% of the Moon is Illuminated
Apr 1
Waning Gibbous
Apr 2
Last Quarter
Apr 10
New
Apr 18
First Quarter
Apr 25
Full

Hourly Weather History & Observations

Time (CDT) Temp. Windchill Dew Point Humidity Pressure Visibility Wind Dir Wind Speed Gust Speed Precip Events Conditions
12:15 AM 21.2 °F 6.4 °F 17.6 °F 86% 30.19 in 10.0 mi North 18.4 mph - N/A   Clear
12:35 AM 19.4 °F 7.2 °F 19.4 °F 100% 30.19 in 10.0 mi North 11.5 mph - N/A   Partly Cloudy
12:55 AM 19.4 °F 6.6 °F 19.4 °F 100% 30.19 in 10.0 mi North 12.7 mph - N/A   Partly Cloudy
1:15 AM 19.4 °F 5.5 °F 19.4 °F 100% 30.20 in 10.0 mi North 15.0 mph 18.4 mph N/A   Partly Cloudy
1:35 AM 19.4 °F 6.6 °F 17.6 °F 93% 30.20 in 10.0 mi NNW 12.7 mph - N/A   Clear
1:55 AM 19.4 °F 6.6 °F 17.6 °F 93% 30.20 in 10.0 mi NNW 12.7 mph - N/A   Clear
2:15 AM 19.4 °F 5.5 °F 14.0 °F 80% 30.20 in 10.0 mi North 15.0 mph - N/A   Clear
2:35 AM 19.4 °F 5.0 °F 14.0 °F 80% 30.21 in 10.0 mi North 16.1 mph - N/A   Clear
2:55 AM 17.6 °F 4.3 °F 15.8 °F 93% 30.21 in 10.0 mi North 12.7 mph - N/A   Clear
3:15 AM 17.6 °F 3.7 °F 14.0 °F 86% 30.22 in 10.0 mi North 13.8 mph - N/A   Clear
3:35 AM 17.6 °F 5.0 °F 14.0 °F 86% 30.22 in 10.0 mi North 11.5 mph - N/A   Clear
3:55 AM 17.6 °F 5.7 °F 15.8 °F 93% 30.22 in 10.0 mi North 10.4 mph - N/A   Clear
4:15 AM 17.6 °F 4.3 °F 14.0 °F 86% 30.22 in 10.0 mi North 12.7 mph - N/A   Clear
4:35 AM 17.6 °F 4.3 °F 14.0 °F 86% 30.22 in 10.0 mi North 12.7 mph - N/A   Clear
4:55 AM 17.6 °F 6.4 °F 14.0 °F 86% 30.23 in 10.0 mi NNW 9.2 mph - N/A   Clear
5:15 AM 17.6 °F 8.2 °F 15.8 °F 93% 30.24 in 10.0 mi NNW 6.9 mph - N/A   Clear
5:35 AM 17.6 °F 6.4 °F 15.8 °F 93% 30.24 in 10.0 mi NNW 9.2 mph - N/A   Clear
5:55 AM 15.8 °F 5.1 °F 15.8 °F 100% 30.25 in 10.0 mi NNW 8.1 mph - N/A   Clear
6:15 AM 15.8 °F 6.1 °F 15.8 °F 100% 30.26 in 10.0 mi NW 6.9 mph - N/A   Clear
6:35 AM 15.8 °F 4.2 °F 15.8 °F 100% 30.26 in 10.0 mi NNW 9.2 mph - N/A   Clear
6:55 AM 15.8 °F 5.1 °F 15.8 °F 100% 30.27 in 10.0 mi NNW 8.1 mph - N/A   Clear
7:15 AM 15.8 °F 6.1 °F 15.8 °F 100% 30.27 in 10.0 mi NNW 6.9 mph - N/A   Clear
7:35 AM 17.6 °F 7.3 °F 17.6 °F 100% 30.28 in 10.0 mi NNW 8.1 mph - N/A   Clear
7:55 AM 17.6 °F 7.3 °F 17.6 °F 100% 30.28 in 10.0 mi NW 8.1 mph - N/A   Clear
8:15 AM 19.4 °F 7.2 °F 19.4 °F 100% 30.29 in 10.0 mi NNW 11.5 mph - N/A   Clear
8:35 AM 19.4 °F 7.9 °F 19.4 °F 100% 30.29 in 10.0 mi NNW 10.4 mph - N/A   Clear
8:55 AM 21.2 °F 9.5 °F 19.4 °F 93% 30.29 in 10.0 mi NW 11.5 mph - N/A   Partly Cloudy
9:15 AM 23.0 °F 12.4 °F 17.6 °F 80% 30.30 in 10.0 mi NNW 10.4 mph - N/A   Scattered Clouds
9:35 AM 23.0 °F 12.4 °F 15.8 °F 74% 30.30 in 10.0 mi NNW 10.4 mph 18.4 mph N/A   Scattered Clouds
9:55 AM 23.0 °F 11.1 °F 15.8 °F 74% 30.30 in 10.0 mi NNW 12.7 mph - N/A   Partly Cloudy
10:15 AM 24.8 °F 12.9 °F 14.0 °F 64% 30.30 in 10.0 mi NNW 13.8 mph - N/A   Clear
10:35 AM 24.8 °F 14.0 °F 14.0 °F 64% 30.30 in 10.0 mi NNW 11.5 mph 16.1 mph N/A   Clear
10:55 AM 24.8 °F 14.0 °F 14.0 °F 64% 30.30 in 10.0 mi North 11.5 mph - N/A   Clear
11:15 AM 26.6 °F 18.2 °F 15.8 °F 64% 30.30 in 10.0 mi North 8.1 mph - N/A   Partly Cloudy
11:35 AM 26.6 °F 19.1 °F 15.8 °F 64% 30.30 in 10.0 mi NNW 6.9 mph - N/A   Partly Cloudy
11:55 AM 26.6 °F 16.2 °F 14.0 °F 59% 30.29 in 10.0 mi North 11.5 mph 16.1 mph N/A   Clear
12:15 PM 28.4 °F 18.0 °F 15.8 °F 59% 30.29 in 10.0 mi NNW 12.7 mph 16.1 mph N/A   Clear
12:35 PM 28.4 °F 18.0 °F 15.8 °F 59% 30.29 in 10.0 mi North 12.7 mph 16.1 mph N/A   Partly Cloudy
12:55 PM 28.4 °F 17.5 °F 15.8 °F 59% 30.29 in 10.0 mi NNW 13.8 mph 18.4 mph N/A   Clear
1:15 PM 30.2 °F 21.3 °F 15.8 °F 55% 30.29 in 10.0 mi NNW 10.4 mph 17.3 mph N/A   Clear
1:35 PM 30.2 °F 20.2 °F 17.6 °F 60% 30.28 in 10.0 mi NNW 12.7 mph 18.4 mph N/A   Clear
1:55 PM 30.2 °F 22.6 °F 15.8 °F 55% 30.28 in 10.0 mi North 8.1 mph - N/A   Clear
2:15 PM 32.0 °F 23.6 °F 15.8 °F 51% 30.28 in 10.0 mi North 10.4 mph - N/A   Clear
2:35 PM 32.0 °F 23.6 °F 15.8 °F 51% 30.28 in 10.0 mi North 10.4 mph - N/A   Clear
2:55 PM 32.0 °F 24.2 °F 15.8 °F 51% 30.27 in 10.0 mi North 9.2 mph - N/A   Clear
3:15 PM 32.0 °F 25.6 °F 15.8 °F 51% 30.27 in 10.0 mi NNW 6.9 mph 23.0 mph N/A   Clear
3:35 PM 32.0 °F 23.6 °F 14.0 °F 48% 30.26 in 10.0 mi NNW 10.4 mph - N/A   Clear
3:55 PM 32.0 °F 23.6 °F 15.8 °F 51% 30.26 in 10.0 mi North 10.4 mph 16.1 mph N/A   Clear
4:15 PM 32.0 °F 24.2 °F 17.6 °F 55% 30.25 in 10.0 mi North 9.2 mph - N/A   Clear
4:35 PM 32.0 °F 23.6 °F 15.8 °F 51% 30.25 in 10.0 mi North 10.4 mph - N/A   Clear
4:55 PM 32.0 °F 25.6 °F 15.8 °F 51% 30.25 in 10.0 mi NW 6.9 mph - N/A   Clear
5:15 PM 32.0 °F 25.6 °F 14.0 °F 48% 30.25 in 10.0 mi North 6.9 mph - N/A   Clear
5:35 PM 32.0 °F 24.2 °F 14.0 °F 48% 30.25 in 10.0 mi NNW 9.2 mph - N/A   Clear
5:55 PM 32.0 °F 27.5 °F 15.8 °F 51% 30.24 in 10.0 mi North 4.6 mph - N/A   Clear
6:15 PM 32.0 °F 25.6 °F 15.8 °F 51% 30.24 in 10.0 mi NE 6.9 mph - N/A   Clear
6:35 PM 32.0 °F 25.6 °F 15.8 °F 51% 30.24 in 10.0 mi NE 6.9 mph - N/A   Clear
6:55 PM 30.2 °F 22.6 °F 15.8 °F 55% 30.24 in 10.0 mi NNE 8.1 mph - N/A   Clear
7:15 PM 28.4 °F 20.4 °F 17.6 °F 64% 30.24 in 10.0 mi North 8.1 mph - N/A   Clear
7:35 PM 28.4 °F 20.4 °F 17.6 °F 64% 30.24 in 10.0 mi North 8.1 mph - N/A   Clear
7:55 PM 26.6 °F 18.2 °F 21.2 °F 80% 30.24 in 10.0 mi NNE 8.1 mph - N/A   Clear
8:15 PM 26.6 °F 18.2 °F 21.2 °F 80% 30.24 in 10.0 mi NNE 8.1 mph - N/A   Clear
8:35 PM 24.8 °F 17.9 °F 23.0 °F 93% 30.25 in 10.0 mi North 5.8 mph - N/A   Clear
8:55 PM 24.8 °F 16.9 °F 23.0 °F 93% 30.26 in 10.0 mi NNE 6.9 mph - N/A   Clear
9:15 PM 24.8 °F 17.9 °F 24.8 °F 100% 30.26 in 10.0 mi NNE 5.8 mph - N/A   Clear
9:35 PM 24.8 °F 17.9 °F 24.8 °F 100% 30.27 in 10.0 mi North 5.8 mph - N/A   Clear
9:55 PM 24.8 °F 17.9 °F 24.8 °F 100% 30.27 in 10.0 mi NNE 5.8 mph - N/A   Clear
10:15 PM 23.0 °F 15.8 °F 23.0 °F 100% 30.27 in 10.0 mi NNE 5.8 mph - N/A   Clear
10:35 PM 23.0 °F 15.8 °F 23.0 °F 100% 30.27 in 10.0 mi NNE 5.8 mph - N/A   Clear
10:55 PM 23.0 °F 18.4 °F 23.0 °F 100% 30.27 in 10.0 mi NE 3.5 mph - N/A   Clear
11:15 PM 23.0 °F - 23.0 °F 100% 30.26 in 10.0 mi Calm Calm - N/A   Clear
11:35 PM 23.0 °F 17.0 °F 23.0 °F 100% 30.25 in 10.0 mi East 4.6 mph - N/A   Clear
11:55 PM 23.0 °F 18.4 °F 23.0 °F 100% 30.25 in 10.0 mi East 3.5 mph - N/A   Clear